Regional Weather Roundup
Issued by NWS

Home | Current Version | Previous Version | Text Only | Print | Product List | Glossary Off
Versions: 1 2 3 4 5 6 7 8 9 10 11 12 13 14 15 16 17 18 19 20 21 22 23 24 25 26 27 28 29 30 31 32 33 34 35 36 37 38 39 40 41 42 43 44 45 46 47 48 49 50

000
ASUS43 KBIS 220810
RWRND

NORTH DAKOTA REGIONAL WEATHER ROUNDUP
NATIONAL WEATHER SERVICE BISMARCK ND
200 AM CST WED FEB 22 2017

NOTE: "FAIR" INDICATES FEW OR NO CLOUDS BELOW 12,000 FEET WITH NO
SIGNIFICANT WEATHER AND/OR OBSTRUCTIONS TO VISIBILITY.


NDZ001>003-009>011-017-220900-
NORTHWEST NORTH DAKOTA

CITY           SKY/WX    TMP DP  RH WIND       PRES   REMARKS
WILLISTON      LGT SNOW  33  32  96 N13       29.71S FOG
MINOT          CLOUDY    34  32  92 NW9       29.71R FOG
MINOT AFB      DRIZZLE   32  32 100 N9        29.70S FOG
$$

NDZ018>021-031>035-040>046-220900-
SOUTHWEST NORTH DAKOTA

CITY           SKY/WX    TMP DP  RH WIND       PRES   REMARKS
BISMARCK       FAIR      33  32  96 CALM      29.66R FOG
DICKINSON      MOCLDY    34  32  92 NE5       29.62F
GARRISON         N/A     33  31  92 NE10      29.68R
HETTINGER ARPT CLOUDY    34  33  96 NW5       29.65F
$$

NDZ004>008-012>016-024-026-027-054-220900-
NORTHEAST NORTH DAKOTA

CITY           SKY/WX    TMP DP  RH WIND       PRES   REMARKS
GRAND FORKS    FOG       33  29  85 N7        29.66F VSB 1/2
GRND FRKS AFB  CLOUDY    32  32 100 N7        29.66F FOG
DEVILS LAKE    CLOUDY    32  32 100 N13       29.65F FOG
$$

NDZ022-023-025-028>030-036>039-047>053-220900-
SOUTHEAST NORTH DAKOTA

CITY           SKY/WX    TMP DP  RH WIND       PRES   REMARKS
FARGO          FOG       34  33  96 NE3       29.62F VSB 1/2
JAMESTOWN      FAIR      32  31  96 NW7       29.62F
$$




USA.gov is the U.S. government's official web portal to all federal, state and local government web resources and services.